Austin, MN

11:13 PM CDT on April 29, 2017 (GMT -0500)
Austin Municipal

Weather History for KAUM - December, 2012

Change the Weather History Date:

Friday, December 21, 2012

  Actual Average Record
Temperature  
Mean Temperature 9 °F -  
Max Temperature 15 °F 23 °F 39 °F (2003)
Min Temperature 3 °F 11 °F -11 °F (1999)
Degree Days  
Heating Degree Days 56    
Moisture  
Dew Point 3 °F    
Average Humidity 80    
Maximum Humidity 92    
Minimum Humidity 67    
Precipitation  
Precipitation 0.00 in - - ()
Sea Level Pressure  
Sea Level Pressure 30.16 in    
Wind  
Wind Speed 13 mph (NW)    
Max Wind Speed 21 mph    
Max Gust Speed 26 mph    
Visibility 8 miles    
Events Snow    
Averages and records for this station are not official NWS values.
T = Trace of Precipitation, MM = Missing Value Source: NWS Daily Summary

Daily Weather History Graph

Daily Weather History Graph

Search for Another Location

Airport or City:

Trip Planner

Search our weather history database for the weather conditions in past years. The results will help you decide how hot, cold, wet, or windy it might be!

Date:

Astronomy

Dec. 21, 2012 Rise Set
Actual Time 7:42 AM CST 4:37 PM CST
Civil Twilight 7:09 AM CST 5:10 PM CST
Nautical Twilight 6:33 AM CST 5:47 PM CST
Astronomical Twilight 5:58 AM CST 6:22 PM CST
Moon 12:32 PM CST (12/21) 1:21 AM CST (12/21)
Length of Visible Light 10h 01m
Length of Day
8h 55m
Waxing Gibbous, 65% of the Moon is Illuminated
Dec 21
Waxing Gibbous
Dec 28
Full
Jan 4
Last Quarter
Jan 11
New
Jan 18
First Quarter

Hourly Weather History & Observations

Time (CST) Temp. Windchill Dew Point Humidity Pressure Visibility Wind Dir Wind Speed Gust Speed Precip Events Conditions
12:15 AM 10.4 °F -8.6 °F 6.8 °F 85% 29.98 in 3.0 mi NW 20.7 mph 26.5 mph N/A Snow Light Snow
12:35 AM 10.4 °F -7.7 °F 6.8 °F 85% 29.99 in 2.5 mi NW 18.4 mph 25.3 mph N/A Snow Light Snow
12:55 AM 10.4 °F -8.2 °F 6.8 °F 85% 29.99 in 2.5 mi NW 19.6 mph 24.2 mph N/A Snow Light Snow
1:15 AM 10.4 °F -6.6 °F 6.8 °F 85% 30.00 in 2.5 mi NW 16.1 mph - N/A Snow Light Snow
1:35 AM 10.4 °F -7.7 °F 5.0 °F 79% 30.01 in 2.5 mi NW 18.4 mph 23.0 mph N/A Snow Light Snow
1:55 AM 8.6 °F -9.5 °F 5.0 °F 85% 30.02 in 3.0 mi NW 17.3 mph 24.2 mph N/A Snow Light Snow
2:15 AM 8.6 °F -9.5 °F 5.0 °F 85% 30.03 in 3.0 mi NW 17.3 mph 24.2 mph N/A Snow Light Snow
2:35 AM 8.6 °F -10.0 °F 3.2 °F 79% 30.04 in 4.0 mi WNW 18.4 mph 25.3 mph N/A Snow Light Snow
2:55 AM 8.6 °F -10.5 °F 3.2 °F 79% 30.06 in 4.0 mi NW 19.6 mph 24.2 mph N/A Snow Light Snow
3:15 AM 8.6 °F -9.5 °F 3.2 °F 79% 30.06 in 5.0 mi NW 17.3 mph 24.2 mph N/A Snow Light Snow
3:35 AM 8.6 °F -9.5 °F 3.2 °F 79% 30.07 in 5.0 mi NW 17.3 mph 25.3 mph N/A Snow Light Snow
3:54 AM 6.8 °F -11.8 °F 3.2 °F 85% 30.07 in 5.0 mi NW 17.3 mph 21.9 mph N/A Snow Light Snow
4:15 AM 6.8 °F -10.7 °F 1.4 °F 79% 30.08 in 5.0 mi NW 15.0 mph 19.6 mph N/A Snow Light Snow
4:20 AM 6.8 °F -10.7 °F 1.4 °F 79% 30.08 in 5.0 mi NW 15.0 mph - N/A Snow Light Snow
4:55 AM 6.8 °F -11.3 °F 1.4 °F 79% 30.10 in 7.0 mi NW 16.1 mph - N/A Snow Light Snow
5:15 AM 5.0 °F -13.6 °F 1.4 °F 85% 30.10 in 5.0 mi NW 16.1 mph - N/A Snow Light Snow
5:35 AM 5.0 °F -11.6 °F 1.4 °F 85% 30.11 in 7.0 mi NW 12.7 mph 18.4 mph N/A Snow Light Snow
5:55 AM 5.0 °F -12.3 °F 1.4 °F 85% 30.11 in 10.0 mi NW 13.8 mph - N/A   Overcast
6:15 AM 5.0 °F -11.6 °F 1.4 °F 85% 30.13 in 7.0 mi NW 12.7 mph - N/A Snow Light Snow
6:35 AM 5.0 °F -11.6 °F 1.4 °F 85% 30.14 in 4.0 mi WNW 12.7 mph 17.3 mph N/A Snow Light Snow
6:55 AM 3.2 °F -13.9 °F -0.4 °F 85% 30.15 in 2.5 mi WNW 12.7 mph - N/A Snow Light Snow
7:15 AM 3.2 °F -13.9 °F -0.4 °F 85% 30.15 in 4.0 mi WNW 12.7 mph - N/A Snow Light Snow
7:35 AM 3.2 °F -13.1 °F -0.4 °F 85% 30.15 in 3.0 mi NW 11.5 mph - N/A Snow Light Snow
7:55 AM 3.2 °F -14.6 °F -0.4 °F 85% 30.17 in 3.0 mi NW 13.8 mph - N/A Snow Light Snow
8:15 AM 3.2 °F -15.3 °F -0.4 °F 85% 30.18 in 5.0 mi WNW 15.0 mph 19.6 mph N/A   Overcast
8:35 AM 3.2 °F -13.1 °F -0.4 °F 85% 30.18 in 3.0 mi NW 11.5 mph 19.6 mph N/A   Overcast
8:55 AM 5.0 °F -11.6 °F -0.4 °F 78% 30.19 in 4.0 mi WNW 12.7 mph - N/A   Haze
9:15 AM 6.8 °F -9.3 °F -0.4 °F 72% 30.19 in 10.0 mi NW 12.7 mph - N/A   Scattered Clouds
9:35 AM 6.8 °F -7.8 °F 1.4 °F 79% 30.20 in 10.0 mi NW 10.4 mph - N/A   Clear
9:55 AM 6.8 °F -9.3 °F 1.4 °F 79% 30.21 in 10.0 mi NW 12.7 mph - N/A   Clear
10:15 AM 6.8 °F -9.3 °F 1.4 °F 79% 30.21 in 10.0 mi NW 12.7 mph - N/A   Clear
10:35 AM 8.6 °F -7.7 °F 1.4 °F 73% 30.21 in 10.0 mi NW 13.8 mph 17.3 mph N/A   Clear
10:54 AM 8.6 °F -7.0 °F 1.4 °F 73% 30.21 in 10.0 mi NW 12.7 mph - N/A   Clear
11:15 AM 10.4 °F -4.8 °F 1.4 °F 67% 30.20 in 10.0 mi NW 12.7 mph - N/A   Clear
11:35 AM 10.4 °F -4.1 °F 3.2 °F 73% 30.20 in 10.0 mi NW 11.5 mph - N/A   Clear
11:55 AM 10.4 °F -4.1 °F 3.2 °F 73% 30.20 in 10.0 mi NW 11.5 mph 16.1 mph N/A   Clear
12:15 PM 10.4 °F -4.8 °F 3.2 °F 73% 30.20 in 10.0 mi WNW 12.7 mph - N/A   Clear
12:35 PM 12.2 °F -2.5 °F 5.0 °F 73% 30.20 in 10.0 mi NW 12.7 mph - N/A   Clear
12:55 PM 12.2 °F -2.5 °F 5.0 °F 73% 30.20 in 10.0 mi NW 12.7 mph - N/A   Clear
1:15 PM 12.2 °F 0.7 °F 5.0 °F 73% 30.20 in 10.0 mi NW 8.1 mph - N/A   Clear
1:35 PM 14.0 °F 2.9 °F 6.8 °F 73% 30.19 in 10.0 mi NW 8.1 mph - N/A   Clear
1:55 PM 14.0 °F 2.9 °F 6.8 °F 73% 30.19 in 10.0 mi NW 8.1 mph - N/A   Clear
2:15 PM 14.0 °F 2.9 °F 6.8 °F 73% 30.18 in 10.0 mi NNW 8.1 mph - N/A   Clear
2:35 PM 15.8 °F 7.2 °F 6.8 °F 68% 30.19 in 10.0 mi WNW 5.8 mph - N/A   Clear
2:55 PM 15.8 °F 6.1 °F 6.8 °F 68% 30.20 in 10.0 mi WNW 6.9 mph - N/A   Clear
3:15 PM 15.8 °F 4.2 °F 6.8 °F 68% 30.20 in 10.0 mi WNW 9.2 mph - N/A   Clear
3:35 PM 15.8 °F 5.1 °F 6.8 °F 68% 30.21 in 10.0 mi WNW 8.1 mph - N/A   Clear
3:55 PM 14.0 °F 2.9 °F 6.8 °F 73% 30.22 in 10.0 mi WNW 8.1 mph - N/A   Clear
4:15 PM 14.0 °F 3.9 °F 6.8 °F 73% 30.23 in 10.0 mi WNW 6.9 mph - N/A   Clear
4:35 PM 12.2 °F 4.3 °F 6.8 °F 79% 30.23 in 10.0 mi West 4.6 mph - N/A   Clear
4:55 PM 12.2 °F 6.1 °F 6.8 °F 79% 30.23 in 10.0 mi West 3.5 mph - N/A   Clear
5:15 PM 10.4 °F - 6.8 °F 85% 30.23 in 10.0 mi Calm Calm - N/A   Clear
5:35 PM 10.4 °F 4.0 °F 6.8 °F 85% 30.23 in 10.0 mi West 3.5 mph - N/A   Clear
5:55 PM 10.4 °F 4.0 °F 5.0 °F 79% 30.23 in 10.0 mi West 3.5 mph - N/A   Clear
6:15 PM 10.4 °F - 5.0 °F 79% 30.23 in 10.0 mi Calm Calm - N/A   Clear
6:35 PM 8.6 °F - 5.0 °F 85% 30.22 in 10.0 mi Calm Calm - N/A   Clear
6:55 PM 8.6 °F - 3.2 °F 79% 30.22 in 10.0 mi Calm Calm - N/A   Clear
7:15 PM 8.6 °F - 3.2 °F 79% 30.23 in 10.0 mi Calm Calm - N/A   Clear
7:35 PM 6.8 °F - 3.2 °F 85% 30.22 in 7.0 mi Calm Calm - N/A   Clear
7:55 PM 5.0 °F - 1.4 °F 85% 30.22 in 7.0 mi Calm Calm - N/A   Clear
8:15 PM 5.0 °F - 1.4 °F 85% 30.22 in 7.0 mi Calm Calm - N/A   Clear
8:35 PM 3.2 °F - 1.4 °F 92% 30.22 in 10.0 mi Calm Calm - N/A   Clear
8:55 PM 5.0 °F - 1.4 °F 85% 30.21 in 7.0 mi Calm Calm - N/A   Clear
9:15 PM 3.2 °F -4.2 °F -0.4 °F 85% 30.21 in 10.0 mi SSW 3.5 mph - N/A   Clear
9:35 PM 3.2 °F - 1.4 °F 92% 30.21 in 10.0 mi Calm Calm - N/A   Clear
9:55 PM 3.2 °F - -0.4 °F 85% 30.20 in 10.0 mi Calm Calm - N/A   Clear
10:15 PM 3.2 °F - -0.4 °F 85% 30.21 in 10.0 mi Calm Calm - N/A   Clear
10:35 PM 3.2 °F - -0.4 °F 85% 30.20 in 10.0 mi Calm Calm - N/A   Clear
10:55 PM 3.2 °F - -0.4 °F 85% 30.19 in 10.0 mi Calm Calm - N/A   Clear
11:15 PM 3.2 °F - -0.4 °F 85% 30.19 in 10.0 mi Calm Calm - N/A   Clear
11:35 PM 5.0 °F -2.1 °F 1.4 °F 85% 30.19 in 10.0 mi South 3.5 mph - N/A   Clear
11:55 PM 3.2 °F - -0.4 °F 85% 30.19 in 10.0 mi Calm Calm - N/A   Clear